Regional Weather Roundup
Issued by NWS Green Bay, WI

Home | Current Version | Previous Version | Text Only | Print | Product List | Glossary On
Versions: 1 2 3 4 5 6 7 8 9 10 11 12 13 14 15 16 17 18 19 20 21 22 23 24 25 26 27 28 29 30 31 32 33 34 35 36 37 38 39 40 41 42 43 44 45 46 47 48 49 50
000
ASUS43 KGRB 281500
RWRGRB

NORTH-CENTRAL AND NORTHEAST WISCONSIN REGIONAL WEATHER ROUNDUP
NATIONAL WEATHER SERVICE GREEN BAY WI
1000 AM CDT TUE MAR 28 2017

WIZ005-009-010>012-018-019-281600-
NORTH CENTRAL WISCONSIN

CITY           SKY/WX    TMP DP  RH WIND       PRES   REMARKS
IRONWOOD       SUNNY     45  32  60 CALM      30.15R
MANITOWISH WTR NOT AVBL
ARBOR VITAE    NOT AVBL
EAGLE RIVER    NOT AVBL
LAND O LAKES   NOT AVBL
RHINELANDER    SUNNY     42  33  70 E6        30.14R
PHILLIPS       NOT AVBL
ANTIGO         NOT AVBL
TOMAHAWK       NOT AVBL
MERRILL        NOT AVBL
$$

WIZ013-073-281600-
NORTHEAST WISCONSIN

CITY           SKY/WX    TMP DP  RH WIND       PRES   REMARKS
IRON MOUNTAIN  SUNNY     44  31  60 CALM      30.13R
MARINETTE        N/A    N/A N/A N/A MISG        N/A
$$

WIZ017-030-035>037-045-281600-
CENTRAL WISCONSIN

CITY           SKY/WX    TMP DP  RH WIND       PRES   REMARKS
MEDFORD        NOT AVBL
WAUSAU         SUNNY     39  35  86 NW3       30.13R
MOSINEE        PTSUNNY   37  37 100 CALM      30.16R FOG
MARSHFIELD     FOG       36  35  96 CALM      30.14R VSB 1/2
WISC RAPIDS    MOSUNNY   42  36  79 CALM      30.16R
STEVENS POINT  NOT AVBL
WAUPACA        NOT AVBL
SHAWANO        NOT AVBL
CLINTONVILLE   NOT AVBL
WAUTOMA        MOSUNNY   45  36  70 CALM      30.15R
$$

WIZ038-039-048-051-281600-
FOX VALLEY

CITY           SKY/WX    TMP DP  RH WIND       PRES   REMARKS
NWS GREEN BAY  SUNNY     43  37  79 NE8       30.15R
APPLETON       PTSUNNY   43  39  87 N7        30.12S
OSHKOSH        SUNNY     44  36  73 NE6       30.13S
FOND DU LAC    SUNNY     43  35  73 NE8       30.14R
$$

WIZ022-050-052-281600-
EAST CENTRAL WISCONSIN

CITY           SKY/WX    TMP DP  RH WIND       PRES   REMARKS
EPHRAIM        NOT AVBL
WASHINGTON ISL NOT AVBL
STURGEON BAY   FOG       33  33 100 E5        30.14R VSB 1/2
MANITOWOC      NOT AVBL
SHEBOYGAN      MOSUNNY   42  36  79 NE9       30.13R
$$

LMZ563-521-522-541>543-281600-
LAKESHORE

STATION/POSITION TIME  TEMP    WIND        PRES    VSBY  WAVE
                       AIR SEA DIR/SP/G                  HT/PER
                 (UTC) (F)     (DEG/KT/KT) (MB)    (MI)  (FT/S)
SHEBOYGAN LKSHOR 1400   37      20/ 11/ 12 1020.7R
KEWAUNEE LKSHORE 1430   34      40/  6/ 11 1020.6R
NORTHPORT PIER   1440   33      60/  6/  8 1021.3R
SISTER BAY LKSHO 1406   34      10/  7/  9   N/A
CHAMBERS ISLAND  1440   31      40/  4/  6 1021.0R
MENOMINEE LKSHOR 1430   30      20/  9/ 10 1020.4R
$$




USA.gov is the U.S. government's official web portal to all federal, state and local government web resources and services.